User: anonymous   Login
Location: Brown Observing Site
(43.4354°N, 116.3366°W)
Time: 16:01:35
(UTC-06:00)
Language:

Envisat - Orbit

View from above orbital plane
View from above orbital plane
View from above satellite
View from above satellite

Ground track
Ground track

The orbit data is extracted from the following two-line orbital elements,

1 27386U 02009A   19295.55522642  .00000012  00000-0  17497-4 0  9999
2 27386  98.1450 310.1143 0001204  94.4224  16.2613 14.37960416924285
Epoch (UTC): 22 October 2019 13:19:31
Eccentricity: 0.0001204
inclination: 98.1450°
perigee height: 764 km
apogee height: 766 km
right ascension of ascending node: 310.1143°
argument of perigee: 94.4224°
revolutions per day: 14.37960416
mean anomaly at epoch: 16.2613°
orbit number at epoch: 92428

The dashed part of the orbit path shows where the satellite is in the earth's shadow,  

DLR